Delta Virtual Airport Information Service

London Heathrow Airport

ICAO: EGLL Country: United Kingdom
Latitude: 51.4775 Longitude: -0.46138
Latest Arrival : KLM1033 (EHAM-EGLL) Latest Departure : BAW460 (EGLL-LEMD)


WX CaptureLIVE
Data provided by noaa.gov | Fetched at 18:41:20

METAR : EGLL 172220Z AUTO 04007KT 9999 BKN013 OVC022 18/16 Q1015 TEMPO SCT013

TAF : EGLL 172220Z AUTO 04007KT 9999 BKN013 OVC022 18/16 Q1015 TEMPO SCT013


Runway Data for EGLL
Data provided by openaviationdata.com

Runway ID Mag Var Hdg Length Elevation Surface ILS Freq ILS Id ILS Slope
09L -1 90° 13160 ft 83 ft Asphalt 110.3 IAA 3
09R -1 91° 12396 ft 83 ft Asphalt 109.5 IBB 3
27L -1 271° 12396 ft 83 ft Asphalt 109.5 ILL 3
27R -1 270° 13160 ft 83 ft Asphalt 110.3 IRR 3

London Heathrow Airport, United Kingdom
Use only for reference purposes



Not for navigational purposes.